This demonstration page uses our WeatherBlox Daily Observations layout. Learn more.

Left ArrowRight Arrow

Hourly Observations for August 15, 2022

Temp ( °F °C ) Dew Point ( °F °C ) Humidity (%) Winds ( mph kmh ) Pressure ( in mb ) Visibility ( mi km ) Precip ( " mm )
12:54 am 00:54 Mostly Clear 75 23.9 60 15.6 60 60 E 9 15 29.94 1014 10 16 0.00 0.00
1:54 am 01:54 Mostly Cloudy with Light Rain 74 23.3 61 16.1 64 64 E 9 15 29.94 1014 10 16 0.01 0.13
2:54 am 02:54 Partly Cloudy 73 22.8 61 16.1 66 66 E 7 11 29.96 1015 10 16 0.01 0.13
3:54 am 03:54 Mostly Cloudy with Light Rain 70 21.1 63 17.2 78 78 NE 8 13 29.97 1015 10 16 0.01 0.13
4:54 am 04:54 Mostly Cloudy 71 21.7 61 16.1 70 70 E 9 15 29.95 1014 10 16 0.01 0.13
5:54 am 05:54 Mostly Cloudy 71 21.7 62 16.7 73 73 SE 9 15 29.96 1015 10 16 0.00 0.00
6:54 am 06:54 Partly Cloudy 70 21.1 63 17.2 78 78 E 10 17 29.96 1015 10 16 0.01 0.13
7:54 am 07:54 Cloudy 68 20 63 17.2 84 84 N 10 17 30.03 1017 10 16 0.00 0.00
8:23 am 08:23 Mostly Cloudy with Light Rain 68 20 64 17.8 87 87 E 17 28 30.00 1016 10 16 0.02 0.51
8:54 am 08:54 Mostly Cloudy with Light Rain 68 20 64 17.8 87 87 E 16 26 29.98 1015 9 14 0.02 0.51
9:10 am 09:10 Mostly Cloudy with Light Rain 68 20 64 17.8 87 87 ESE 16 26 29.97 1015 9 14 0.01 0.13
9:18 am 09:18 Mostly Cloudy 68 20 65 18.3 90 90 ESE 13 20 29.98 1015 10 16 0.01 0.13
9:54 am 09:54 Partly Cloudy 70 21.1 65 18.3 84 84 ESE 17 28 29.97 1015 10 16 0.01 0.13
10:54 am 10:54 Mostly Cloudy 70 21.1 64 17.8 81 81 SE 18 30 29.97 1015 10 16 0.01 0.13
11:54 am 11:54 Partly Cloudy with Light Rain 73 22.8 64 17.8 73 73 SE 8 13 29.96 1015 10 16 0.01 0.13
12:54 pm 12:54 Mostly Cloudy 74 23.3 62 16.7 66 66 SE 13 20 29.96 1014 10 16 0.01 0.13
1:54 pm 13:54 Mostly Cloudy with Light Rain 73 22.8 64 17.8 73 73 E 8 13 29.95 1014 10 16 0.01 0.13
2:54 pm 14:54 Mostly Cloudy with Light Rain 73 22.8 66 18.9 79 79 undefined N/A 29.96 1015 10 16 0.01 0.13
3:54 pm 15:54 Mostly Sunny 73 22.8 66 18.9 79 79 ENE 8 13 29.96 1014 10 16 0.01 0.25
4:21 pm 16:21 Mostly Cloudy 73 22.8 66 18.9 79 79 ENE 9 15 29.95 1014 10 16 0.00 0.00
4:54 pm 16:54 Cloudy 72 22.2 66 18.9 82 82 ENE 15 24 29.96 1015 10 16 0.00 0.00
5:54 pm 17:54 Cloudy 70 21.1 64 17.8 81 81 ENE 18 30 29.96 1015 10 16 0.01 0.13
6:54 pm 18:54 Cloudy 71 21.7 63 17.2 76 76 E 17 28 29.96 1015 10 16 0.00 0.00
7:15 pm 19:15 Cloudy 70 21.1 63 17.2 78 78 E 18 30 29.95 1014 10 16 0.00 0.00
7:45 pm 19:45 Cloudy 69 20.6 62 16.7 78 78 ENE 21 33 29.96 1015 10 16 0.00 0.00
7:54 pm 19:54 Cloudy 69 20.6 62 16.7 78 78 E 16 26 29.98 1015 10 16 0.00 0.00
8:32 pm 20:32 Mostly Cloudy 68 20 61 16.1 78 78 E 13 20 29.99 1015 10 16 0.00 0.00
8:41 pm 20:41 Mostly Cloudy 68 20 61 16.1 78 78 ENE 17 28 29.98 1015 10 16 0.00 0.00
8:54 pm 20:54 Cloudy with Light Rain 68 20 61 16.1 78 78 E 14 22 30.00 1016 10 16 0.01 0.13
8:57 pm 20:57 Cloudy with Nearby Thunderstorms 68 20 62 16.7 81 81 ENE 15 24 29.99 1015 10 16 0.01 0.13
9:34 pm 21:34 Cloudy with Thunderstorms 67 19.4 61 16.1 81 81 E 13 20 30.00 1016 10 16 0.01 0.13
9:54 pm 21:54 Cloudy with Thunderstorms 66 18.9 61 16.1 84 84 E 14 22 30.01 1016 10 16 0.01 0.13
10:04 pm 22:04 Cloudy with Thunderstorms 66 18.9 62 16.7 87 87 NE 17 28 30.01 1016 10 16 0.01 0.13
10:18 pm 22:18 Cloudy with Thunderstorms 65 18.3 62 16.7 90 90 E 18 30 29.98 1015 7 11 0.01 0.13
10:44 pm 22:44 Cloudy with Light Rain 65 18.3 62 16.7 90 90 ENE 13 20 30.02 1017 8 13 0.06 1.52
10:54 pm 22:54 Cloudy with Light Rain 65 18.3 62 16.7 90 90 E 13 20 30.02 1017 10 16 0.06 1.52
11:07 pm 23:07 Cloudy with Thunderstorms 65 18.3 62 16.7 90 90 E 13 20 30.02 1016 7 11 0.01 0.25
11:42 pm 23:42 Cloudy with Strong Thunderstorms 64 17.8 62 16.7 93 93 ESE 15 24 30.03 1017 2 3 0.14 3.56
11:46 pm 23:46 Cloudy with Strong Thunderstorms 64 17.8 62 16.7 93 93 ESE 16 26 30.03 1017 2 3 0.26 6.60
11:54 pm 23:54 Cloudy with Nearby Thunderstorms 64 17.8 62 16.7 93 93 ESE 14 22 30.02 1017 5 8 0.28 7.11

Powered by AerisWeather